KM5RF Weather Reports


Display with metric or nautical units.
time (UTC)temp
F
wind
direction
speed
MPH
gust
MPH
rain 1hr
in
rain 24hr
in
rain mn
in
humidity
%
barometer
mb
20260502231503 74 67 2.0 5.0 0.00 0.00 0.00 41 1019.1
20260502230009 75 17 3.0 9.0 0.00 0.00 0.00 40 1019.1
20260502224509 75 333 4.0 8.0 0.00 0.00 0.00 42 1019.2
20260502223015 74 141 2.0 8.0 0.00 0.00 0.00 41 1019.3
20260502221523 74 325 5.0 9.0 0.00 0.00 0.00 41 1019.5
20260502220011 75 313 3.0 7.0 0.00 0.00 0.00 40 1019.5
20260502214510 74 277 1.0 6.0 0.00 0.00 0.00 42 1019.6
20260502213032 74 41 3.0 9.0 0.00 0.00 0.00 43 1019.7
20260502211522 74 350 6.0 10.0 0.00 0.00 0.00 43 1019.9
20260502210023 74 342 1.0 10.0 0.00 0.00 0.00 43 1020.1
20260502204507 74 209 1.0 12.0 0.00 0.00 0.00 42 1020.2
20260502203028 74 5 4.0 9.0 0.00 0.00 0.00 47 1020.2
20260502201532 74 316 4.0 9.0 0.00 0.00 0.00 45 1020.3
20260502200022 73 34 3.0 6.0 0.00 0.00 0.00 44 1020.5
20260502194524 72 332 0.0 10.0 0.00 0.00 0.00 46 1020.6
20260502193028 73 360 3.0 10.0 0.00 0.00 0.00 46 1020.8
20260502191530 72 67 3.0 10.0 0.00 0.00 0.00 48 1020.8
20260502190020 71 314 5.0 10.0 0.00 0.00 0.00 47 1021.0
20260502184521 72 90 1.0 9.0 0.00 0.00 0.00 48 1021.1
20260502183030 71 34 2.0 10.0 0.00 0.00 0.00 44 1021.3
20260502181528 71 51 4.0 8.0 0.00 0.00 0.00 45 1021.6
20260502163022 68 327 2.0 8.0 0.00 0.00 0.00 52 1022.4
20260502161530 67 5 0.0 10.0 0.00 0.00 0.00 59 1022.3
20260502151524 64 282 4.0 10.0 0.00 0.00 0.00 67 1022.2
20260502123011 53 279 5.0 9.0 0.00 0.03 0.00 78 1020.8
20260502121520 51 288 5.0 9.0 0.00 0.03 0.00 79 1020.5
20260502114524 51 256 3.0 7.0 0.00 0.03 0.00 79 1019.9
20260502113007 51 273 3.0 8.0 0.00 0.03 0.00 79 1019.6
20260502111512 50 280 2.0 6.0 0.00 0.03 0.00 80 1019.4
20260502110020 50 294 1.0 4.0 0.00 0.03 0.00 80 1019.4
20260502104527 50 304 3.0 4.0 0.00 0.03 0.00 81 1019.3
20260502103024 50 304 2.0 4.0 0.00 0.03 0.00 81 1019.2
20260502101528 50 279 2.0 4.0 0.00 0.03 0.00 80 1019.4
20260502091527 50 291 0.0 4.0 0.00 0.04 0.00 81 1018.7
20260502071512 49 45 0.0 0.0 0.00 0.04 0.00 83 1019.0
20260502070007 50 45 0.0 0.0 0.00 0.04 0.00 82 1018.9
20260502064511 50 45 0.0 0.0 0.00 0.04 0.00 82 1019.0
20260502063020 50 45 0.0 0.0 0.00 0.04 0.00 83 1019.2
20260502061517 51 45 0.0 0.0 0.00 0.04 0.00 83 1019.3
20260502060032 51 45 0.0 0.0 0.00 0.04 0.00 83 1019.3
20260502054506 51 45 0.0 0.0 0.00 0.04 0.00 83 1019.2
20260502053011 51 45 0.0 0.0 0.00 0.04 0.00 83 1019.2
20260502051515 51 45 0.0 0.0 0.00 0.04 0.00 83 1019.2
20260502050022 52 45 0.0 0.0 0.00 0.04 0.00 82 1019.1
20260502044518 52 45 0.0 0.0 0.00 0.04 0.04 82 1019.1
20260502043006 52 45 0.0 0.0 0.00 0.04 0.04 83 1019.2
20260502041527 54 45 0.0 0.0 0.00 0.04 0.04 82 1019.1
20260502040037 54 45 0.0 0.0 0.00 0.04 0.04 82 1018.9
20260502034522 54 45 0.0 0.0 0.00 0.04 0.04 82 1019.0
20260502033030 55 45 0.0 0.0 0.00 0.04 0.04 81 1018.8
20260502031511 56 45 0.0 1.0 0.00 0.04 0.04 81 1018.6
20260502030015 56 45 0.0 0.0 0.00 0.04 0.04 81 1018.5
20260502024518 56 45 0.0 0.0 0.00 0.04 0.04 81 1018.5
20260502023032 56 45 0.0 1.0 0.00 0.04 0.04 81 1018.3
20260502021525 56 45 0.0 0.0 0.00 0.04 0.04 81 1018.0
20260502020025 56 45 0.0 0.0 0.00 0.04 0.04 81 1017.9
20260502014520 56 45 0.0 1.0 0.00 0.04 0.04 80 1017.7
20260502013023 56 45 0.0 0.0 0.00 0.04 0.04 80 1017.5
20260502011533 57 47 0.0 1.0 0.00 0.04 0.04 79 1017.1
20260502010014 57 47 0.0 4.0 0.00 0.04 0.04 78 1016.7
20260502004514 57 42 1.0 4.0 0.00 0.04 0.04 77 1016.5
20260502003015 58 81 2.0 5.0 0.00 0.04 0.04 77 1016.3
20260502001520 58 82 1.0 4.0 0.00 0.04 0.04 76 1016.1
20260502000036 58 36 4.0 7.0 0.00 0.04 0.04 76 1016.0
20260501234513 58 58 1.0 9.0 0.00 0.04 0.04 75 1016.1
20260501233013 59 70 4.0 9.0 0.00 0.04 0.04 73 1015.9